Wind_Speed
34 36 38 38 38 39 41 39 35 34 38 39 39 38 36 36 35 32 29 29 29 28 26 26 27 28 29 31 31 31 32 32 31 32 33 34 34 34 34 33 34 34 34 33 33 32 33 35 36 37 38 38 38 38 40 40 39 37 35 34 37 38 38
35 35 35 32 30 32 34 32 29 31 34 35 35 34 35 37 36 32 28 29 29 29 30 32 34 34 35 35 35 34 33 31 31 32 32 33 33 33 34 34 34 35 35 34 32 32 34 35 36 38 39 39 38 39 41 40 38 36 34 35 37 38 38
38 37 33 29 27 27 28 26 26 31 33 31 30 30 32 35 35 32 28 31 32 31 32 35 38 39 40 40 35 32 31 29 29 30 31 32 33 34 34 35 36 37 35 32 31 32 34 36 37 39 39 38 38 39 41 40 37 36 34 35 38 39 39
36 37 33 30 29 28 26 24 26 30 31 31 29 29 31 33 35 33 29 31 33 33 34 35 37 38 40 38 33 30 31 29 30 32 33 34 35 35 36 37 38 37 33 30 30 32 35 37 39 40 39 38 38 40 41 39 36 35 35 36 38 39 38
35 36 34 32 32 32 30 27 28 30 32 33 34 33 33 34 36 35 33 34 35 36 36 35 34 35 36 37 35 33 34 34 35 37 37 38 38 37 37 38 38 36 32 30 31 34 37 39 40 39 38 39 41 42 41 38 36 35 35 36 38 39 38
35 36 36 34 35 36 33 29 29 31 34 36 37 38 36 35 36 36 37 38 38 38 38 35 32 32 35 37 38 37 37 38 39 39 39 40 39 38 38 38 37 34 31 31 33 36 39 40 39 38 39 42 44 42 40 37 36 35 34 36 38 38 36
35 36 36 37 39 38 33 31 32 32 33 34 36 38 38 37 38 39 40 41 40 40 39 35 32 33 35 37 39 40 40 40 40 40 40 40 39 39 38 38 37 34 32 33 34 37 39 39 39 41 43 45 44 42 40 37 35 35 34 35 37 36 35
35 37 36 36 38 36 33 34 34 34 35 35 35 36 37 39 40 41 43 43 43 43 41 38 36 37 38 39 40 41 41 41 41 41 41 41 41 41 42 42 39 35 33 34 36 39 41 42 43 45 46 45 43 41 38 36 35 34 34 34 35 34 33
36 37 36 34 35 34 33 35 36 37 39 38 37 36 35 38 41 42 43 43 44 45 44 44 43 42 41 42 43 43 43 43 43 43 43 43 43 44 45 43 38 34 34 36 39 42 44 46 47 47 46 44 42 39 36 34 34 34 33 32 33 32 32
37 39 38 34 34 33 33 34 37 41 41 39 39 37 35 37 41 43 44 44 45 44 42 43 43 42 42 43 45 46 46 46 45 45 44 43 43 43 42 38 35 35 38 41 44 45 46 47 47 46 44 42 40 38 34 32 33 33 32 31 31 31 30
38 39 40 36 35 35 34 35 40 43 43 41 41 40 39 40 42 45 46 46 45 42 39 38 39 39 40 42 43 44 46 46 46 45 45 43 41 40 39 38 38 40 43 45 45 46 46 46 46 44 42 41 39 36 32 31 32 32 30 30 30 30 28
39 39 40 37 35 36 37 37 41 45 46 44 42 41 41 42 43 46 46 45 43 41 40 40 39 39 39 40 41 43 44 45 45 44 44 43 40 39 40 42 43 44 45 44 44 44 44 44 44 42 41 40 37 34 30 30 31 31 29 29 29 28 25
41 39 41 39 35 37 39 38 41 45 47 46 43 42 42 42 43 43 44 45 45 44 45 44 42 40 40 40 41 43 44 45 44 44 45 44 43 43 43 44 44 43 41 41 42 43 44 43 42 41 40 38 36 32 29 29 30 30 28 27 26 25 23
43 42 43 41 38 38 38 37 39 43 46 46 45 45 45 44 43 43 44 46 46 46 47 47 45 44 45 46 46 44 43 43 45 46 46 46 46 45 44 42 40 38 38 40 41 43 43 42 41 40 39 37 34 31 29 28 30 30 27 24 23 22 22
45 44 45 44 41 39 37 35 38 42 45 46 47 47 47 46 45 45 45 46 47 47 47 46 46 47 48 50 49 46 43 42 43 44 44 44 44 43 40 37 36 37 39 41 41 42 42 40 39 39 37 35 33 31 28 27 29 29 26 23 21 21 21
47 46 46 45 42 40 37 35 38 42 44 45 47 48 48 47 46 45 45 46 47 46 46 45 44 44 45 48 49 47 46 44 43 43 43 43 42 39 37 36 37 39 41 42 41 41 40 38 38 38 36 34 32 30 27 26 28 28 26 23 21 21 22
49 47 46 46 44 43 40 38 39 41 43 45 47 48 47 47 45 43 44 46 46 44 43 42 42 41 42 45 47 48 48 46 45 44 43 41 39 37 36 38 40 41 41 41 40 39 38 37 36 36 36 34 32 29 27 26 27 28 27 23 22 22 22
52 50 49 48 46 45 43 40 39 40 43 46 46 46 45 45 44 42 42 45 47 45 42 40 40 41 42 44 46 47 47 46 44 43 42 40 39 38 39 40 41 42 41 40 38 37 36 36 36 36 36 34 32 29 27 26 26 27 26 24 24 24 24
54 53 53 53 50 47 45 42 40 39 42 45 44 43 44 44 44 43 43 46 49 47 44 41 41 42 44 46 47 48 48 47 47 46 45 42 41 40 40 40 41 41 40 38 36 35 36 36 36 37 36 34 32 30 28 28 27 27 26 26 26 27 26
56 56 57 56 54 51 48 44 42 40 42 45 45 43 43 44 43 43 45 48 49 48 45 42 41 42 44 46 48 50 51 50 50 48 45 43 42 42 41 40 40 40 38 36 35 35 36 36 37 37 36 34 32 30 30 30 29 28 27 26 28 29 29
56 56 57 57 56 55 51 45 41 40 40 42 45 46 45 43 43 44 46 47 48 48 46 42 40 40 41 41 44 47 48 48 46 44 43 43 43 42 40 40 39 38 36 34 34 35 36 37 38 38 37 36 33 32 32 32 31 30 28 27 28 31 32
56 55 55 54 55 56 56 51 45 43 41 40 42 46 46 45 45 45 45 44 45 47 45 41 39 39 37 36 37 38 40 41 41 41 41 41 41 40 39 38 37 35 33 32 33 34 37 39 39 39 39 38 35 35 35 34 33 33 31 30 30 31 32
56 55 54 52 53 55 57 57 53 49 47 43 42 43 43 44 44 45 45 44 43 44 43 40 38 38 37 35 35 35 36 37 37 38 38 38 39 38 38 36 34 32 31 31 32 35 38 41 40 40 41 40 37 37 38 38 36 35 33 33 33 33 34
56 56 55 53 52 53 55 56 55 53 52 50 47 45 44 43 42 42 44 44 44 45 44 41 39 39 37 36 35 35 35 36 37 38 38 38 39 39 38 36 34 32 31 32 33 35 38 40 40 41 43 43 40 40 40 40 39 38 36 35 36 36 37
56 56 56 55 53 53 54 54 53 53 52 52 50 47 46 46 46 43 42 42 42 43 43 41 41 41 39 37 37 37 36 37 37 37 37 37 38 39 38 37 36 35 34 34 35 36 38 39 39 40 42 43 43 43 43 43 41 40 40 39 38 39 40
56 57 57 56 55 55 56 55 55 54 53 53 52 50 47 47 48 47 44 42 41 41 41 41 41 41 40 40 41 41 40 39 37 37 37 37 38 38 38 38 37 37 36 36 36 37 38 39 40 41 42 44 46 46 46 45 43 42 43 43 42 42 42
53 57 58 57 57 57 58 57 57 56 55 55 55 53 50 48 48 49 49 47 46 45 44 43 42 41 41 41 42 43 42 41 40 39 40 41 42 42 42 41 40 39 38 37 38 38 39 39 40 42 43 46 48 48 48 47 45 45 47 47 45 44 44
48 53 58 59 58 59 59 59 59 58 58 59 58 56 54 50 49 50 51 51 51 51 50 48 46 44 43 43 43 43 42 41 42 43 44 46 46 47 47 46 45 43 42 41 41 40 40 40 41 43 45 48 50 50 50 50 49 49 49 48 46 46 46
46 48 53 57 59 59 59 59 59 59 59 60 60 60 58 54 49 48 49 49 50 51 52 52 51 49 48 48 47 46 44 43 44 46 48 49 49 50 50 49 47 45 44 43 42 42 42 43 44 45 47 49 51 52 53 53 52 52 51 49 48 48 48
49 47 48 52 56 58 59 58 58 59 59 60 59 60 60 58 54 52 50 49 49 50 51 52 52 52 52 52 51 50 48 47 47 49 51 51 52 51 51 50 48 46 45 43 43 44 45 46 48 48 50 51 53 54 55 56 55 53 52 51 50 49 48
53 50 49 49 52 55 57 57 58 58 59 60 60 60 61 61 60 58 56 54 52 51 51 52 53 54 54 54 54 54 53 51 50 51 52 52 53 53 52 51 50 48 46 46 46 48 49 50 50 51 51 52 53 54 56 57 56 55 54 53 51 50 51
57 55 54 52 52 53 54 56 56 56 57 58 58 59 61 62 63 62 60 59 58 56 54 54 54 55 55 54 55 54 54 52 51 52 53 53 54 55 54 53 51 50 50 50 51 52 52 52 52 51 51 52 53 54 55 56 56 56 55 54 53 52 54
63 60 59 57 55 54 54 56 56 56 56 56 56 57 58 60 61 60 59 59 60 59 58 56 57 57 56 54 54 53 52 52 51 51 53 54 55 56 55 55 54 54 54 54 55 55 54 54 53 52 53 53 54 55 55 56 56 57 57 56 56 56 56
67 66 63 61 59 57 56 57 57 57 58 59 58 57 58 60 61 60 59 60 62 62 60 59 59 59 57 55 54 54 53 52 52 53 55 56 58 59 59 59 59 60 60 61 61 60 58 57 56 56 56 57 57 57 57 57 58 59 59 60 60 60 60
71 71 69 66 64 62 60 58 58 58 59 60 59 59 61 63 64 64 63 63 62 61 59 58 59 59 58 56 55 55 54 54 54 55 57 59 60 61 63 64 65 65 64 64 63 61 60 60 60 59 59 59 59 59 59 59 60 61 62 62 63 63 62
72 74 74 71 69 67 64 62 61 59 59 59 58 58 62 65 66 67 66 64 62 60 59 59 58 58 57 56 54 54 55 55 55 55 55 58 61 63 63 64 64 63 61 59 59 59 59 59 59 60 60 60 60 60 60 61 62 63 64 65 65 65 65
72 75 77 77 74 72 69 67 65 63 61 60 58 57 60 64 66 67 66 64 63 62 61 60 59 57 55 54 53 53 54 55 56 56 56 58 62 64 64 64 64 63 62 61 61 61 61 62 62 62 63 62 61 61 62 62 63 65 66 66 67 68 70
Wind_Direction
253 257 259 260 261 262 263 265 265 266 267 267 266 262 258 256 257 257 255 254 257 252 245 249 253 254 257 258 261 265 264 263 264 265 266 267 268 272 278 286 291 294 297 297 296 296 300 306 310 313 313 312 310 310 311 312 315 318 320 319 318 317 317
240 244 252 259 263 262 262 263 261 256 256 259 261 260 256 254 254 250 245 245 249 248 244 243 246 251 255 260 267 271 267 263 261 260 261 264 268 274 281 288 291 294 296 296 295 296 300 306 311 312 311 310 309 309 310 312 315 318 318 317 316 316 316
236 238 247 257 261 265 263 257 249 243 239 240 248 253 252 251 249 246 243 243 246 252 251 247 248 251 256 261 267 269 267 262 257 257 262 267 272 278 283 288 291 293 295 295 294 296 302 309 312 310 308 308 308 308 309 311 314 316 316 315 314 315 316
240 242 246 251 256 262 261 250 240 237 234 229 232 241 243 244 245 241 238 240 246 252 255 253 250 250 255 259 258 257 258 257 256 261 267 272 276 280 284 288 291 292 293 293 293 297 305 311 310 307 306 306 307 307 308 310 313 314 313 313 313 315 316
242 240 240 245 252 254 253 246 238 237 235 229 227 232 237 241 243 239 233 235 240 245 252 255 252 248 251 254 254 254 255 256 260 266 271 274 276 280 284 287 289 290 291 293 295 301 307 309 307 305 303 305 307 308 308 310 312 311 312 312 313 315 316
243 240 237 241 246 247 245 239 234 236 237 234 233 235 235 236 239 237 233 234 237 243 250 253 251 248 248 251 253 256 257 260 263 267 271 274 277 280 282 285 287 289 292 295 299 303 305 305 305 303 302 305 308 308 308 310 310 309 310 311 313 315 316
245 245 242 239 240 242 240 230 227 234 236 236 238 239 236 232 234 236 234 234 239 245 250 249 246 245 247 252 256 257 256 258 262 266 270 273 275 277 279 283 285 289 294 298 301 303 303 303 303 302 303 306 308 307 307 309 307 307 309 311 314 315 316
242 244 243 241 239 240 239 228 224 230 234 236 237 237 237 232 229 233 235 238 243 247 248 247 248 247 246 251 256 258 258 259 262 265 268 271 273 276 278 281 283 289 296 298 299 300 301 301 302 302 303 305 305 305 306 307 305 305 307 310 314 315 316
240 240 240 240 239 241 239 228 223 228 234 238 237 236 239 234 227 229 235 240 245 249 250 251 252 252 250 252 255 258 262 264 265 267 269 271 274 276 277 279 283 290 293 293 295 297 298 299 300 301 302 303 303 304 305 304 302 304 306 309 313 313 314
239 238 238 238 237 239 239 228 223 229 235 238 239 240 241 235 228 228 233 239 245 250 252 253 254 254 255 257 258 259 263 264 266 267 269 272 275 277 278 281 286 288 288 290 293 295 295 297 298 299 300 300 301 303 304 302 300 302 304 308 311 312 313
239 237 238 239 238 238 238 231 226 230 234 238 241 243 242 237 231 229 230 235 241 245 247 250 254 257 258 259 259 261 262 262 263 265 268 272 276 278 280 283 285 285 287 290 292 292 293 294 296 297 298 298 300 302 302 299 299 300 302 307 309 310 311
237 236 235 238 240 239 238 234 229 229 232 235 239 242 241 239 237 235 234 234 237 240 243 247 252 256 257 259 261 264 265 264 265 266 268 271 273 273 276 280 282 284 286 288 289 290 291 292 294 296 296 297 299 300 298 296 296 297 302 305 306 307 309
236 234 231 232 236 238 238 237 234 231 232 234 236 238 240 243 242 239 237 234 235 240 243 244 247 250 254 258 261 264 266 265 266 266 268 269 270 271 273 277 279 281 283 285 286 288 289 290 292 293 294 295 297 297 294 293 293 296 301 304 303 304 306
237 233 229 227 232 235 236 239 240 236 233 235 237 237 240 245 246 243 239 236 236 239 243 244 245 248 252 256 259 262 263 262 262 264 266 267 269 271 273 274 276 278 280 282 283 285 286 288 289 290 291 293 294 293 291 290 291 295 301 302 300 300 300
237 234 229 229 234 235 234 238 242 239 234 235 237 237 241 246 247 246 244 241 238 238 241 243 245 248 251 254 258 260 261 261 261 262 264 266 268 270 271 272 273 275 277 278 280 282 284 285 287 288 289 290 291 290 287 287 290 294 298 298 297 295 294
234 234 230 230 234 234 233 236 241 239 234 235 237 239 243 246 246 248 248 245 243 242 243 245 247 249 251 253 256 258 260 262 262 263 266 268 268 267 268 270 272 273 274 276 278 280 281 283 284 286 287 289 289 286 283 284 288 292 293 293 291 288 290
230 231 228 229 233 233 232 234 237 237 233 233 237 240 242 244 245 247 248 245 245 247 249 251 252 251 252 253 255 257 260 262 263 263 265 266 264 263 266 269 270 271 272 274 276 278 280 282 283 284 286 287 286 283 280 282 285 287 289 288 283 280 286
228 228 225 227 232 233 234 234 235 236 234 232 236 239 240 241 242 244 246 245 246 250 253 255 256 255 255 255 257 257 259 260 261 262 263 264 262 262 264 266 267 269 271 273 274 277 280 281 282 283 284 285 284 280 279 281 283 284 287 284 277 277 284
228 227 225 226 229 230 232 234 235 238 237 234 236 239 238 238 240 242 244 245 247 249 252 254 256 257 257 258 259 259 259 260 262 264 265 264 261 261 262 264 267 269 270 272 273 276 279 280 281 282 283 283 281 277 276 280 281 281 283 282 277 277 283
228 228 225 226 227 228 230 233 235 238 240 238 236 238 239 238 239 241 243 245 247 249 251 254 256 257 257 258 259 259 260 261 263 264 263 261 259 260 262 264 267 269 269 271 273 276 279 280 281 282 282 281 278 273 274 278 279 278 279 279 277 278 282
228 228 226 227 228 228 229 231 232 235 239 240 237 238 240 240 241 242 242 244 247 249 252 255 257 257 258 259 259 259 259 260 261 261 260 259 260 262 263 264 265 267 268 270 274 278 280 282 283 282 280 278 274 268 270 275 276 275 276 275 276 278 281
228 228 228 229 230 229 230 231 233 234 237 241 239 239 242 245 246 246 243 243 245 247 250 254 255 256 257 258 258 258 257 258 259 259 259 260 261 262 263 264 264 264 266 270 275 280 283 283 282 279 276 274 270 266 269 274 274 274 274 274 274 276 279
228 229 229 230 231 231 231 233 236 238 239 240 240 240 242 245 248 248 247 246 246 247 249 251 251 252 254 256 257 256 256 257 259 260 261 262 263 264 264 263 262 263 266 270 273 276 279 279 277 276 276 275 271 269 272 275 276 276 275 274 274 275 276
229 230 231 231 231 231 232 234 236 239 241 241 240 240 239 240 243 246 247 248 248 248 248 248 249 251 253 255 254 254 256 257 258 260 261 263 264 264 264 264 264 266 267 267 268 268 270 271 272 274 275 274 271 271 274 277 278 277 276 274 273 273 274
232 232 232 232 232 231 231 232 234 236 239 239 239 239 239 238 240 243 247 248 248 248 249 250 252 254 255 254 254 256 257 259 260 261 262 264 264 264 264 265 265 265 265 265 264 264 265 266 267 268 269 268 269 272 275 277 277 277 277 276 274 272 273
234 233 233 233 233 233 232 233 234 236 238 238 237 238 239 238 239 242 245 247 248 250 252 254 255 255 255 256 258 260 261 262 264 266 267 267 266 265 265 265 265 265 265 265 263 263 264 265 265 265 264 265 267 271 274 275 276 276 276 274 272 272 274
235 234 234 233 234 234 234 235 237 238 238 238 237 238 240 240 241 242 245 247 250 253 255 256 256 256 257 259 261 262 263 265 268 269 270 270 269 268 268 268 268 268 268 266 264 264 265 265 266 266 265 266 268 271 273 273 274 273 272 273 275 276 277
235 235 235 234 234 235 235 236 237 239 239 238 236 237 239 241 242 244 245 246 249 252 254 255 256 257 258 260 262 263 263 265 267 268 269 269 269 269 269 270 270 269 268 267 265 265 265 266 266 267 268 269 270 272 273 273 273 273 274 276 277 277 277
231 234 235 235 234 234 235 235 236 237 238 239 238 237 237 237 239 243 244 245 247 250 252 254 255 257 259 261 262 263 263 264 265 266 266 267 268 269 269 270 269 268 266 265 265 265 266 267 268 268 269 270 271 272 272 273 275 276 276 275 275 275 277
228 230 233 234 235 234 234 235 235 236 237 237 236 236 236 235 237 240 243 246 249 251 252 253 255 257 260 263 263 264 265 266 266 265 266 266 267 268 268 268 267 265 263 263 264 265 266 267 268 269 269 270 271 272 272 273 274 275 275 275 275 276 277
227 228 229 231 234 235 235 235 236 237 238 238 237 237 237 237 237 239 241 245 249 252 254 256 257 259 261 263 264 266 267 267 267 267 267 267 267 267 266 264 263 262 261 262 265 266 267 268 269 269 270 271 271 272 272 272 273 274 275 275 276 277 278
227 228 228 229 230 232 235 237 237 237 239 240 240 240 241 241 241 242 244 248 251 254 257 258 259 261 262 263 264 265 266 266 266 266 266 266 266 265 262 261 260 261 262 264 266 268 268 269 270 271 271 271 272 272 272 272 273 273 274 274 275 277 278
230 228 228 229 229 230 232 235 237 238 239 240 241 242 244 246 248 249 251 254 256 257 258 258 259 261 261 262 263 264 264 264 263 264 264 264 262 261 260 260 261 262 264 265 267 268 270 271 272 272 272 272 273 273 273 272 272 272 273 274 274 276 278
234 231 228 229 231 231 231 232 234 236 238 240 242 243 245 247 251 253 254 255 256 257 257 257 258 260 260 261 261 261 261 262 262 262 262 261 260 261 261 263 264 266 267 267 268 269 270 271 272 272 272 273 273 273 273 273 273 273 273 274 276 277 279
236 234 231 230 231 233 233 233 234 236 238 240 242 243 244 246 249 251 252 253 253 255 256 256 257 258 259 259 259 259 258 258 258 259 260 260 260 261 263 264 265 265 266 266 267 268 268 269 269 270 271 271 271 272 273 273 274 274 274 275 276 278 279
238 237 234 232 231 232 234 236 237 237 239 242 243 242 241 243 246 248 249 250 251 252 255 257 258 259 260 259 258 257 255 255 257 259 261 261 261 261 263 264 264 264 264 264 265 265 266 267 268 269 269 269 269 270 271 272 272 272 273 274 275 277 278
239 238 237 235 233 232 234 236 238 240 241 243 245 243 240 240 242 245 246 249 251 253 255 257 258 259 259 258 256 254 254 256 259 261 263 263 262 262 262 262 263 263 264 265 266 266 268 269 270 270 269 269 269 270 271 271 271 271 271 273 274 276 278
Height
10674 10673 10672 10674 10678 10681 10684 10688 10696 10701 10699 10699 10701 10703 10706 10707 10708 10708 10708 10708 10707 10708 10709 10710 10710 10711 10712 10713 10715 10716 10718 10719 10719 10719 10718 10719 10719 10718 10718 10718 10718 10717 10716 10715 10714 10714 10714 10713 10712 10711 10709 10707 10706 10704 10701 10699 10698 10696 10694 10692 10690 10687 10686
10661 10661 10663 10669 10673 10675 10679 10683 10691 10696 10696 10696 10697 10699 10700 10702 10703 10704 10705 10706 10705 10704 10706 10707 10707 10708 10708 10710 10711 10712 10714 10715 10715 10714 10715 10715 10716 10715 10715 10715 10714 10713 10712 10712 10711 10711 10710 10710 10709 10707 10706 10704 10703 10701 10698 10696 10694 10692 10691 10689 10686 10685 10683
10657 10658 10662 10667 10670 10672 10675 10680 10684 10686 10689 10692 10695 10696 10696 10697 10698 10699 10701 10702 10701 10700 10702 10703 10705 10705 10705 10707 10709 10709 10709 10710 10711 10711 10711 10712 10712 10712 10712 10711 10711 10710 10709 10708 10708 10708 10707 10706 10705 10703 10702 10701 10700 10698 10695 10693 10691 10689 10688 10686 10683 10682 10680
10658 10660 10662 10665 10667 10670 10672 10676 10679 10681 10683 10688 10691 10692 10692 10692 10693 10694 10696 10697 10697 10697 10698 10700 10702 10703 10704 10705 10706 10706 10706 10707 10707 10707 10708 10708 10708 10708 10708 10708 10707 10706 10705 10705 10704 10704 10703 10702 10701 10699 10698 10697 10697 10695 10692 10689 10687 10686 10684 10682 10681 10679 10677
10657 10659 10660 10662 10665 10667 10669 10672 10675 10677 10679 10682 10685 10687 10687 10688 10688 10690 10691 10692 10693 10693 10694 10697 10699 10702 10703 10702 10702 10703 10703 10704 10704 10703 10704 10704 10705 10705 10705 10704 10704 10703 10702 10701 10700 10700 10699 10698 10697 10696 10694 10694 10693 10692 10689 10686 10684 10683 10681 10679 10678 10676 10675
10654 10655 10656 10658 10660 10662 10664 10667 10669 10672 10674 10677 10680 10681 10682 10683 10683 10685 10687 10687 10688 10689 10691 10693 10696 10699 10700 10697 10697 10699 10699 10700 10700 10700 10700 10701 10701 10702 10701 10701 10700 10699 10698 10697 10697 10696 10695 10694 10693 10692 10691 10690 10690 10688 10685 10683 10681 10679 10678 10676 10675 10673 10672
10649 10651 10653 10654 10655 10657 10660 10662 10664 10667 10670 10673 10676 10676 10676 10677 10678 10680 10681 10682 10683 10685 10687 10690 10692 10695 10695 10693 10693 10694 10695 10696 10696 10696 10697 10697 10698 10698 10698 10698 10697 10696 10695 10693 10693 10692 10691 10690 10690 10689 10687 10686 10686 10684 10682 10680 10678 10676 10675 10673 10672 10670 10669
10644 10646 10649 10650 10651 10653 10655 10657 10660 10663 10665 10668 10670 10670 10670 10671 10673 10674 10675 10678 10679 10681 10683 10685 10687 10689 10690 10689 10688 10689 10690 10691 10692 10693 10693 10694 10694 10694 10694 10694 10693 10692 10691 10690 10689 10689 10688 10686 10686 10685 10683 10682 10681 10680 10678 10676 10674 10673 10671 10670 10669 10667 10666
10640 10642 10644 10646 10648 10649 10651 10654 10657 10658 10659 10662 10664 10665 10666 10667 10669 10670 10671 10674 10675 10676 10678 10680 10681 10683 10685 10685 10685 10685 10686 10686 10687 10688 10688 10689 10690 10690 10689 10689 10689 10688 10687 10686 10686 10685 10683 10682 10681 10681 10679 10678 10677 10677 10675 10673 10671 10669 10668 10667 10666 10664 10663
10636 10638 10640 10642 10644 10646 10647 10650 10652 10653 10655 10658 10660 10661 10662 10662 10663 10665 10666 10668 10669 10671 10673 10675 10676 10678 10680 10681 10681 10681 10681 10682 10682 10683 10683 10685 10685 10684 10684 10684 10684 10683 10682 10682 10681 10681 10679 10678 10677 10676 10675 10674 10673 10673 10671 10669 10667 10666 10665 10664 10663 10661 10660
10631 10634 10637 10640 10641 10642 10644 10646 10648 10649 10651 10654 10655 10656 10657 10657 10658 10659 10660 10663 10665 10667 10668 10670 10671 10673 10674 10675 10676 10676 10676 10677 10678 10678 10679 10680 10680 10679 10678 10678 10679 10679 10678 10678 10677 10676 10675 10674 10673 10671 10671 10670 10669 10669 10667 10666 10664 10662 10661 10660 10659 10658 10657
10625 10630 10633 10636 10637 10638 10639 10642 10643 10644 10647 10649 10650 10651 10652 10652 10653 10654 10656 10659 10661 10663 10664 10665 10666 10668 10669 10670 10671 10671 10671 10671 10673 10673 10674 10675 10675 10675 10675 10674 10674 10674 10674 10673 10673 10671 10670 10670 10668 10667 10666 10665 10665 10664 10663 10662 10660 10659 10658 10657 10656 10655 10653
10620 10624 10627 10628 10629 10630 10633 10636 10638 10639 10642 10644 10645 10646 10647 10648 10649 10650 10653 10655 10657 10658 10659 10660 10661 10663 10664 10665 10666 10666 10665 10666 10668 10668 10669 10669 10670 10671 10671 10671 10671 10670 10670 10669 10668 10667 10666 10665 10664 10663 10662 10661 10661 10660 10659 10658 10656 10655 10655 10654 10653 10652 10651
10614 10619 10620 10620 10621 10623 10627 10631 10633 10634 10637 10639 10640 10641 10642 10643 10645 10646 10648 10649 10651 10652 10653 10655 10657 10658 10660 10661 10661 10661 10661 10662 10662 10663 10664 10665 10665 10666 10667 10667 10666 10666 10666 10665 10664 10662 10661 10660 10659 10659 10658 10657 10657 10656 10655 10654 10653 10651 10651 10651 10650 10649 10648
10609 10612 10614 10614 10616 10618 10622 10625 10627 10628 10631 10633 10634 10635 10637 10639 10640 10641 10642 10644 10646 10647 10648 10650 10652 10654 10655 10655 10656 10656 10657 10657 10658 10659 10660 10660 10661 10661 10661 10662 10662 10662 10661 10660 10660 10659 10657 10656 10655 10654 10653 10653 10653 10652 10652 10651 10650 10648 10648 10648 10647 10646 10645
10603 10606 10609 10611 10612 10614 10616 10618 10618 10619 10624 10628 10628 10629 10630 10632 10634 10636 10637 10639 10640 10642 10644 10645 10647 10649 10650 10650 10650 10651 10652 10653 10654 10655 10656 10656 10656 10656 10656 10657 10657 10657 10656 10656 10655 10654 10653 10652 10650 10649 10648 10648 10649 10648 10648 10648 10647 10645 10645 10645 10644 10643 10642
10598 10601 10604 10606 10607 10609 10611 10611 10610 10612 10617 10619 10619 10620 10623 10625 10628 10630 10631 10633 10635 10637 10639 10640 10641 10643 10644 10644 10645 10645 10646 10648 10649 10650 10651 10651 10651 10651 10651 10652 10652 10651 10651 10651 10650 10649 10648 10647 10646 10644 10644 10644 10644 10644 10644 10644 10643 10642 10641 10641 10641 10640 10639
10593 10596 10599 10601 10603 10604 10606 10607 10607 10608 10610 10611 10612 10615 10618 10620 10623 10625 10626 10627 10629 10631 10633 10635 10636 10637 10638 10639 10639 10640 10640 10642 10643 10644 10645 10646 10646 10646 10646 10647 10647 10646 10646 10646 10645 10644 10643 10642 10641 10640 10639 10640 10640 10640 10640 10640 10640 10638 10637 10637 10637 10636 10636
10586 10590 10593 10595 10596 10598 10600 10603 10604 10605 10606 10607 10609 10612 10613 10615 10617 10619 10620 10621 10622 10624 10627 10630 10631 10632 10634 10634 10634 10634 10635 10636 10637 10638 10640 10640 10640 10640 10641 10642 10642 10641 10641 10641 10640 10639 10638 10637 10636 10635 10635 10635 10636 10636 10636 10636 10636 10634 10633 10632 10632 10632 10632
10579 10583 10586 10588 10590 10592 10595 10598 10600 10601 10602 10603 10606 10608 10608 10610 10612 10613 10614 10615 10616 10619 10622 10625 10627 10628 10629 10629 10629 10629 10630 10631 10631 10633 10634 10634 10634 10635 10636 10637 10637 10636 10636 10636 10636 10635 10633 10632 10631 10630 10630 10631 10632 10632 10631 10631 10631 10631 10630 10629 10628 10627 10627
10573 10576 10580 10582 10585 10588 10590 10592 10595 10597 10597 10598 10601 10602 10603 10605 10607 10607 10609 10611 10613 10615 10617 10620 10622 10623 10624 10624 10624 10624 10625 10626 10626 10627 10628 10628 10629 10630 10631 10632 10632 10631 10631 10631 10630 10630 10629 10627 10626 10625 10625 10625 10627 10627 10627 10626 10627 10627 10626 10626 10624 10623 10622
10567 10570 10574 10576 10580 10583 10586 10587 10590 10592 10592 10593 10596 10597 10599 10600 10602 10602 10604 10606 10608 10610 10612 10615 10617 10618 10619 10619 10619 10619 10620 10621 10621 10622 10623 10623 10624 10625 10625 10626 10626 10626 10626 10626 10626 10626 10625 10622 10620 10619 10618 10618 10621 10622 10622 10622 10622 10622 10622 10622 10621 10620 10618
10562 10565 10568 10571 10575 10578 10580 10582 10584 10586 10587 10589 10591 10593 10595 10596 10597 10598 10599 10601 10603 10605 10607 10611 10613 10613 10614 10613 10613 10614 10615 10616 10616 10617 10618 10619 10619 10619 10620 10620 10620 10620 10621 10621 10621 10622 10620 10616 10615 10614 10612 10612 10615 10617 10617 10617 10617 10618 10618 10618 10617 10616 10615
10556 10559 10563 10566 10569 10572 10575 10576 10579 10581 10582 10584 10586 10588 10590 10592 10593 10594 10595 10596 10598 10600 10602 10606 10607 10608 10608 10608 10608 10609 10610 10611 10612 10612 10613 10614 10614 10614 10614 10614 10615 10615 10615 10616 10616 10616 10614 10612 10611 10611 10609 10608 10610 10612 10612 10612 10612 10613 10614 10614 10613 10612 10610
10551 10554 10557 10561 10564 10566 10568 10570 10573 10575 10577 10579 10581 10583 10584 10586 10588 10589 10590 10591 10593 10594 10597 10600 10601 10601 10602 10602 10602 10603 10605 10605 10606 10606 10607 10608 10608 10608 10608 10609 10609 10609 10610 10610 10610 10609 10608 10607 10607 10607 10606 10604 10604 10606 10606 10606 10606 10607 10607 10607 10607 10606 10605
10545 10549 10552 10555 10558 10559 10561 10564 10567 10570 10572 10574 10576 10577 10578 10580 10581 10583 10585 10586 10587 10589 10591 10592 10594 10594 10595 10596 10596 10597 10598 10599 10599 10600 10601 10601 10602 10602 10602 10603 10603 10604 10604 10604 10604 10603 10603 10602 10602 10602 10601 10600 10599 10600 10600 10600 10601 10601 10599 10599 10600 10599 10599
10539 10543 10546 10550 10552 10553 10555 10559 10562 10565 10567 10569 10570 10571 10572 10574 10575 10577 10579 10580 10581 10583 10584 10586 10587 10588 10588 10589 10590 10591 10591 10592 10593 10593 10594 10595 10595 10595 10596 10596 10597 10598 10598 10598 10598 10597 10597 10596 10596 10596 10596 10595 10594 10594 10594 10594 10595 10594 10592 10592 10593 10593 10593
10534 10537 10540 10544 10546 10546 10550 10554 10556 10558 10560 10562 10564 10565 10566 10568 10569 10570 10572 10574 10575 10576 10578 10579 10581 10581 10582 10583 10583 10584 10585 10586 10587 10587 10587 10588 10588 10589 10589 10590 10591 10591 10592 10592 10591 10591 10590 10590 10590 10590 10590 10589 10588 10588 10588 10588 10588 10587 10586 10587 10587 10586 10585
10529 10532 10534 10537 10539 10541 10544 10548 10550 10552 10554 10555 10557 10559 10560 10561 10562 10563 10565 10567 10568 10569 10571 10573 10574 10575 10575 10576 10577 10578 10579 10580 10581 10581 10580 10581 10581 10582 10582 10583 10584 10584 10585 10585 10584 10584 10584 10584 10584 10584 10583 10582 10582 10581 10580 10580 10581 10581 10580 10581 10580 10579 10578
10524 10526 10528 10531 10533 10535 10538 10541 10544 10546 10547 10549 10551 10552 10553 10555 10555 10556 10558 10560 10561 10562 10565 10567 10568 10569 10569 10569 10570 10571 10573 10574 10574 10573 10573 10574 10574 10575 10575 10575 10576 10577 10578 10578 10578 10577 10577 10577 10577 10577 10577 10576 10575 10574 10573 10572 10573 10574 10574 10573 10573 10573 10572
10518 10520 10522 10525 10527 10529 10532 10535 10538 10540 10541 10543 10545 10546 10547 10548 10549 10550 10552 10553 10554 10556 10558 10560 10561 10562 10562 10562 10563 10564 10566 10567 10567 10566 10566 10566 10566 10567 10567 10568 10569 10570 10571 10571 10571 10570 10570 10570 10570 10570 10570 10570 10569 10568 10566 10565 10565 10566 10566 10566 10566 10566 10564
10511 10513 10516 10519 10521 10523 10526 10528 10531 10533 10534 10536 10538 10540 10541 10541 10542 10545 10547 10547 10549 10550 10552 10553 10554 10554 10555 10555 10556 10557 10558 10559 10560 10559 10559 10559 10559 10559 10559 10560 10561 10562 10563 10564 10564 10563 10563 10563 10563 10563 10562 10562 10561 10561 10560 10559 10558 10558 10558 10559 10559 10558 10556
10504 10506 10508 10512 10514 10517 10519 10521 10524 10527 10528 10529 10531 10533 10534 10534 10535 10538 10541 10541 10541 10543 10545 10546 10546 10547 10548 10549 10549 10550 10551 10551 10552 10552 10552 10552 10551 10551 10551 10551 10552 10554 10555 10555 10556 10556 10556 10555 10555 10555 10554 10554 10553 10553 10552 10552 10551 10551 10551 10551 10551 10551 10549
10496 10498 10501 10504 10507 10510 10512 10514 10517 10519 10521 10521 10523 10526 10527 10527 10527 10530 10534 10533 10532 10533 10536 10539 10539 10540 10541 10542 10542 10543 10544 10544 10545 10545 10545 10544 10544 10543 10543 10543 10543 10544 10545 10546 10547 10548 10549 10548 10547 10547 10546 10546 10545 10545 10545 10545 10544 10544 10543 10543 10542 10542 10541
10487 10489 10492 10496 10498 10501 10504 10507 10509 10512 10513 10515 10517 10519 10520 10521 10521 10522 10524 10526 10525 10525 10527 10530 10531 10532 10533 10535 10536 10536 10537 10537 10537 10536 10536 10536 10536 10535 10534 10534 10534 10535 10536 10537 10538 10539 10540 10540 10539 10539 10540 10539 10538 10538 10538 10538 10538 10537 10536 10535 10534 10533 10532
10478 10480 10483 10487 10490 10492 10495 10498 10501 10504 10506 10507 10509 10511 10512 10514 10514 10514 10516 10517 10518 10518 10519 10520 10522 10524 10525 10527 10528 10529 10529 10529 10529 10528 10528 10528 10527 10527 10526 10525 10525 10525 10527 10528 10529 10529 10530 10530 10530 10531 10531 10531 10531 10532 10532 10532 10531 10531 10529 10527 10526 10525 10524
10468 10471 10473 10477 10481 10483 10486 10489 10492 10495 10497 10499 10501 10503 10504 10506 10508 10508 10508 10510 10511 10511 10513 10513 10514 10515 10516 10517 10519 10520 10521 10521 10521 10520 10520 10519 10519 10518 10517 10516 10516 10516 10517 10519 10519 10520 10521 10521 10521 10523 10523 10522 10523 10524 10524 10524 10523 10523 10522 10521 10519 10518 10517